User: anonymous   Login
Location: Aurora Center
(43.5271°N, 98.5894°W)
Time: 08:04:55
(UTC-05:00)
Language:

Transit 2A - Orbit

View from above orbital plane
View from above orbital plane
View from above satellite
View from above satellite

Ground track
Ground track

The orbit data is extracted from the following two-line orbital elements,

1 00045U 60007A   24195.89255111  .00000372  00000-0  11651-3 0  9994
2 00045  66.6942  59.0832 0257854 311.2848  46.6300 14.34792636279102
Epoch (UTC): 13 July 2024 21:25:16
Eccentricity: 0.0257854
inclination: 66.6942°
perigee height: 591 km
apogee height: 960 km
right ascension of ascending node: 59.0832°
argument of perigee: 311.2848°
revolutions per day: 14.34792636
mean anomaly at epoch: 46.6300°
orbit number at epoch: 27910

The dashed part of the orbit path shows where the satellite is in the earth's shadow,  

DLR